Simultaneous Nadir Overpasses (SNOs) Predictions

Prediction of SNOs between AQUA and NPP Satellite Orbit:

Table of predicted SNOs for the next 14.0 days since TLE Epoch: 5/25/2012
Index Date (AQUA) Time (AQUA) Lat,Lon (AQUA) SZA (AQUA ) Date (NPP) Time (NPP) Lat,Lon (NPP) SZA (NPP ) Distance(km) Time Diff (sec)
1 05/26/2012 14:54:39 76.59,-162.81 75.57 05/26/2012 14:53:53 76.58,-162.84 75.62 0.81 46
2 05/26/2012 15:43:50 -77.37, 7.71 105.39 05/26/2012 15:44:21 -77.36, 7.66 105.40 1.54 31
3 05/29/2012 07:11:07 76.75, -46.37 74.97 05/29/2012 07:10:42 76.75, -46.44 75.01 1.90 25
4 05/29/2012 08:00:19 -77.49, 124.06 105.94 05/29/2012 08:01:11 -77.48, 123.96 105.95 2.59 52
5 05/31/2012 23:27:31 77.21, 71.16 74.06 05/31/2012 23:27:23 77.22, 71.26 74.05 2.55 8
6 06/01/2012 00:16:45 -77.84,-118.61 106.73 06/01/2012 00:17:54 -77.84,-118.53 106.81 1.96 69
7 06/03/2012 14:55:02 -76.33, 16.26 105.19 06/03/2012 14:53:52 -76.33, 16.25 105.13 0.31 70
8 06/03/2012 15:44:09 77.20,-173.02 73.76 06/03/2012 15:44:16 77.21,-173.00 73.75 0.46 7
9 06/06/2012 07:11:43 -76.34, 132.09 105.45 06/06/2012 07:10:45 -76.33, 132.01 105.39 2.52 58




NCC Satellite Simultaneous Nadir Overpasses (SNOs) Prediction Service
